Penticton, British Columbia

1:19 PM PDT on July 28, 2017 (GMT -0700)
Penticton

Weather History for CYYF - October, 2012

Change the Weather History Date:

Wednesday, October 17, 2012

  Actual Average Record
Temperature  
Mean Temperature 44 °F -  
Max Temperature 58 °F 50 °F 68 °F (2003)
Min Temperature 29 °F 34 °F 24 °F (1996)
Degree Days  
Heating Degree Days 22    
Moisture  
Dew Point 31 °F    
Average Humidity 55    
Maximum Humidity 81    
Minimum Humidity 24    
Precipitation  
Precipitation 0.00 in 0.03 in - ()
Sea Level Pressure  
Sea Level Pressure 30.21 in    
Wind  
Wind Speed 3 mph ()    
Max Wind Speed 10 mph    
Max Gust Speed -    
Visibility 15.0 miles    
Events      
Averages and records for this station are not official NWS values.
T = Trace of Precipitation, MM = Missing Value Source: Averaged Metar Reports

Daily Weather History Graph

Daily Weather History Graph

Search for Another Location

Airport or City:

Trip Planner

Search our weather history database for the weather conditions in past years. The results will help you decide how hot, cold, wet, or windy it might be!

Date:

Astronomy

Oct. 17, 2012 Rise Set
Actual Time 7:23 AM PDT 6:02 PM PDT
Civil Twilight 6:51 AM PDT 6:35 PM PDT
Nautical Twilight 6:14 AM PDT 7:12 PM PDT
Astronomical Twilight 5:37 AM PDT 7:49 PM PDT
Moon 10:21 AM PDT (10/17) 7:24 PM PDT (10/17)
Length of Visible Light 11h 43m
Length of Day
10h 39m
Waxing Crescent, 8% of the Moon is Illuminated
Oct 17
Waxing Crescent
Oct 21
First Quarter
Oct 29
Full
Nov 6
Last Quarter
Nov 13
New

Hourly Weather History & Observations

Time (PDT) Temp. Windchill Dew Point Humidity Pressure Visibility Wind Dir Wind Speed Gust Speed Precip Events Conditions
12:00 AM 50.0 °F - 30.2 °F 47% 30.09 in 15.0 mi ENE 4.6 mph - N/A   Mostly Cloudy
1:00 AM 42.8 °F 39.3 °F 30.2 °F 61% 30.11 in 15.0 mi NNE 5.8 mph - N/A   Scattered Clouds
2:00 AM 41.0 °F - 30.2 °F 65% 30.14 in 15.0 mi Calm Calm - N/A   Scattered Clouds
3:00 AM 41.0 °F 39.0 °F 28.4 °F 61% 30.15 in 15.0 mi WSW 3.5 mph - N/A   Scattered Clouds
4:00 AM 35.6 °F 32.8 °F 30.2 °F 81% 30.17 in 15.0 mi ENE 3.5 mph - N/A   Partly Cloudy
5:00 AM 37 °F - 29 °F 62% 30.19 in 15 mi North 2.3 mph - -   Scattered Clouds
5:00 AM 37.4 °F - 28.4 °F 70% 30.18 in 15.0 mi Calm Calm - N/A   Partly Cloudy
6:00 AM 33.8 °F 30.8 °F 28.4 °F 81% 30.20 in 15.0 mi ENE 3.5 mph - N/A   Partly Cloudy
7:00 AM 35.6 °F - 28.4 °F 75% 30.23 in 15.0 mi Calm Calm - N/A   Partly Cloudy
8:00 AM 33.8 °F - 28.4 °F 81% 30.24 in 15.0 mi NE 2.3 mph - N/A   Partly Cloudy
9:00 AM 41.0 °F - 33.8 °F 76% 30.26 in 15.0 mi Calm Calm - N/A   Partly Cloudy
10:00 AM 50.0 °F - 35.6 °F 58% 30.27 in 15.0 mi South 3.5 mph - N/A   Scattered Clouds
11:00 AM 52 °F - 34 °F 39% 30.27 in 15 mi South 5.8 mph - -   Partly Cloudy
11:00 AM 51.8 °F - 33.8 °F 50% 30.27 in 15.0 mi SSW 6.9 mph - N/A   Mostly Cloudy
12:00 PM 51.8 °F - 32.0 °F 47% 30.27 in 15.0 mi South 5.8 mph - N/A   Mostly Cloudy
2:00 PM 55.4 °F - 28.4 °F 36% 30.25 in 15.0 mi Calm Calm - N/A   Mostly Cloudy
3:00 PM 57.2 °F - 26.6 °F 31% 30.22 in 15.0 mi West 4.6 mph - N/A   Scattered Clouds
4:00 PM 57.2 °F - 28.4 °F 33% 30.23 in 15.0 mi North 4.6 mph - N/A   Scattered Clouds
5:00 PM 55 °F - 29 °F 24% 30.23 in 15 mi WSW 3.5 mph - -   Clear
5:00 PM 55.4 °F - 28.4 °F 36% 30.23 in 15.0 mi WSW 3.5 mph - N/A   Scattered Clouds
6:00 PM 48.2 °F - 32.0 °F 54% 30.24 in 15.0 mi ENE 3.5 mph - N/A   Scattered Clouds
7:00 PM 44.6 °F - 32.0 °F 61% 30.25 in 15.0 mi North 2.3 mph - N/A   Mostly Cloudy
8:00 PM 46.4 °F 45.2 °F 32.0 °F 57% 30.23 in 15.0 mi NNE 3.5 mph - N/A   Mostly Cloudy
9:00 PM 46.4 °F 44.3 °F 33.8 °F 62% 30.24 in 15.0 mi North 4.6 mph - N/A   Mostly Cloudy
10:00 PM 46.4 °F 44.3 °F 32.0 °F 57% 30.22 in 15.0 mi North 4.6 mph - N/A   Mostly Cloudy
11:00 PM 54 °F - 30 °F 28% 30.20 in 15 mi South 9.2 mph - -   Mostly Cloudy
11:00 PM 53.6 °F - 30.2 °F 41% 30.20 in 15.0 mi South 10.4 mph - N/A   Mostly Cloudy